| time (UTC) | temp F | wind direction | speed knots | gust knots | rain 1hr in | rain 24hr in | rain mn in | humidity % | barometer mb |
| 20260904041552 | 63 | 162 | 1.7 | 3.5 | 0.00 | 0.01 | 0.00 | 90 | 1012.2 |
| 20260904040024 | 63 | 198 | 0.9 | 6.1 | 0.00 | 0.01 | 0.00 | 90 | 1012.4 |
| 20260904034540 | 62 | 152 | 1.7 | 5.2 | 0.00 | 0.01 | 0.00 | 91 | 1012.7 |
| 20260904033019 | 62 | 189 | 0.9 | 4.3 | 0.00 | 0.01 | 0.00 | 90 | 1012.8 |
| 20260904031518 | 62 | 190 | 0.0 | 2.6 | 0.00 | 0.01 | 0.00 | 90 | 1013.0 |
| 20260904030017 | 62 | 177 | 0.0 | 1.7 | 0.00 | 0.01 | 0.00 | 89 | 1013.0 |
| 20260904024516 | 62 | 178 | 0.0 | 2.6 | 0.00 | 0.01 | 0.00 | 89 | 1013.1 |
| 20260904023015 | 62 | 182 | 0.0 | 3.5 | 0.00 | 0.01 | 0.00 | 89 | 1013.0 |
| 20260904021513 | 62 | 172 | 0.0 | 2.6 | 0.00 | 0.01 | 0.00 | 89 | 1013.0 |
| 20260904020012 | 62 | 221 | 0.0 | 0.9 | 0.00 | 0.01 | 0.00 | 90 | 1013.3 |
| 20260904014511 | 62 | 155 | 0.0 | 2.6 | 0.00 | 0.01 | 0.00 | 90 | 1013.4 |
| 20260904013011 | 62 | 187 | 0.0 | 2.6 | 0.00 | 0.01 | 0.00 | 90 | 1013.5 |
| 20260904011532 | 62 | 208 | 0.0 | 2.6 | 0.00 | 0.01 | 0.00 | 90 | 1013.4 |
| 20260904010009 | 62 | 156 | 0.0 | 3.5 | 0.00 | 0.01 | 0.00 | 90 | 1013.4 |
| 20260904004508 | 62 | 182 | 0.0 | 3.5 | 0.00 | 0.01 | 0.00 | 91 | 1013.4 |
| 20260904003006 | 62 | 264 | 0.0 | 2.6 | 0.00 | 0.01 | 0.00 | 91 | 1013.5 |
| 20260904001503 | 62 | 185 | 0.0 | 5.2 | 0.00 | 0.01 | 0.00 | 91 | 1013.5 |
| 20260904000001 | 62 | 241 | 0.0 | 2.6 | 0.00 | 0.01 | 0.00 | 91 | 1013.7 |
| 20260903234601 | 62 | 200 | 0.0 | 3.5 | 0.00 | 0.01 | 0.00 | 91 | 1013.8 |
| 20260903233059 | 61 | 265 | 0.0 | 4.3 | 0.00 | 0.01 | 0.00 | 90 | 1013.8 |
| 20260903231558 | 61 | 175 | 0.0 | 3.5 | 0.00 | 0.01 | 0.00 | 90 | 1014.0 |
| 20260903230055 | 61 | 220 | 0.0 | 4.3 | 0.00 | 0.01 | 0.00 | 89 | 1014.1 |
| 20260903224552 | 62 | 171 | 0.0 | 1.7 | 0.00 | 0.01 | 0.00 | 88 | 1014.3 |
| 20260903223050 | 62 | 197 | 0.0 | 1.7 | 0.00 | 0.01 | 0.00 | 87 | 1014.2 |
| 20260903221548 | 63 | 192 | 0.0 | 2.6 | 0.00 | 0.01 | 0.00 | 86 | 1014.2 |
| 20260903220053 | 63 | 189 | 0.9 | 3.5 | 0.00 | 0.01 | 0.00 | 86 | 1014.3 |
| 20260903214545 | 64 | 178 | 0.9 | 3.5 | 0.00 | 0.01 | 0.01 | 85 | 1014.1 |
| 20260903213054 | 64 | 223 | 0.9 | 2.6 | 0.00 | 0.01 | 0.01 | 84 | 1014.1 |
| 20260903211551 | 64 | 223 | 0.0 | 3.5 | 0.00 | 0.01 | 0.01 | 84 | 1014.1 |
| 20260903210052 | 65 | 165 | 0.9 | 3.5 | 0.00 | 0.01 | 0.01 | 84 | 1014.1 |
| 20260903204544 | 65 | 33 | 0.9 | 11.3 | 0.00 | 0.01 | 0.01 | 84 | 1014.1 |
| 20260903203104 | 65 | 310 | 0.9 | 6.1 | 0.00 | 0.01 | 0.01 | 84 | 1014.0 |
| 20260903201541 | 65 | 171 | 1.7 | 8.7 | 0.00 | 0.01 | 0.01 | 84 | 1013.9 |
| 20260903200040 | 65 | 251 | 0.9 | 7.8 | 0.00 | 0.01 | 0.01 | 84 | 1014.1 |
| 20260903194536 | 64 | 225 | 1.7 | 7.0 | 0.00 | 0.01 | 0.01 | 85 | 1014.1 |
| 20260903193023 | 64 | 167 | 0.9 | 7.8 | 0.00 | 0.01 | 0.01 | 85 | 1013.8 |
| 20260903191515 | 64 | 130 | 0.0 | 7.0 | 0.00 | 0.01 | 0.01 | 87 | 1014.0 |
| 20260903190012 | 64 | 219 | 1.7 | 3.5 | 0.00 | 0.01 | 0.01 | 87 | 1014.0 |
| 20260903184512 | 64 | 228 | 0.9 | 2.6 | 0.00 | 0.01 | 0.01 | 87 | 1014.1 |
| 20260903183012 | 64 | 178 | 0.0 | 1.7 | 0.00 | 0.01 | 0.01 | 87 | 1014.1 |
| 20260903181514 | 64 | 263 | 0.0 | 2.6 | 0.00 | 0.01 | 0.01 | 88 | 1014.1 |
| 20260903180019 | 65 | 284 | 0.0 | 5.2 | 0.00 | 0.01 | 0.01 | 89 | 1014.0 |
| 20260903174509 | 65 | 204 | 0.0 | 1.7 | 0.00 | 0.01 | 0.01 | 90 | 1014.0 |
| 20260903173009 | 65 | 294 | 0.0 | 0.9 | 0.00 | 0.01 | 0.01 | 90 | 1013.9 |
| 20260903171508 | 66 | 274 | 0.0 | 2.6 | 0.00 | 0.01 | 0.01 | 89 | 1013.9 |
| 20260903170013 | 66 | 286 | 0.0 | 0.0 | 0.00 | 0.01 | 0.01 | 89 | 1013.5 |
| 20260903164509 | 67 | 305 | 0.0 | 0.9 | 0.00 | 0.01 | 0.01 | 88 | 1013.6 |
| 20260903163012 | 67 | 305 | 0.0 | 0.0 | 0.01 | 0.01 | 0.01 | 87 | 1013.5 |
| 20260903160037 | 68 | 199 | 0.0 | 0.0 | 0.01 | 0.01 | 0.01 | 85 | 1013.5 |
| 20260903154546 | 68 | 234 | 0.0 | 4.3 | 0.01 | 0.01 | 0.01 | 81 | 1013.9 |
| 20260903153036 | 70 | 254 | 0.9 | 11.3 | 0.00 | 0.00 | 0.00 | 73 | 1014.4 |
| 20260903151534 | 72 | 223 | 0.9 | 5.2 | 0.00 | 0.00 | 0.00 | 65 | 1013.7 |
| 20260903150034 | 72 | 161 | 2.6 | 7.8 | 0.00 | 0.00 | 0.00 | 64 | 1013.6 |
| 20260903144542 | 72 | 184 | 3.5 | 16.5 | 0.00 | 0.00 | 0.00 | 64 | 1013.8 |
| 20260903143043 | 71 | 263 | 0.0 | 8.7 | 0.00 | 0.00 | 0.00 | 65 | 1013.7 |
| 20260903141529 | 71 | 302 | 0.0 | 7.0 | 0.00 | 0.00 | 0.00 | 65 | 1013.9 |
| 20260903140036 | 71 | 162 | 0.9 | 4.3 | 0.00 | 0.00 | 0.00 | 65 | 1014.0 |
| 20260903134529 | 71 | 240 | 1.7 | 12.2 | 0.00 | 0.00 | 0.00 | 64 | 1014.1 |
| 20260903133028 | 73 | 288 | 1.7 | 10.4 | 0.00 | 0.00 | 0.00 | 60 | 1014.1 |
| 20260903131527 | 72 | 239 | 2.6 | 10.4 | 0.00 | 0.00 | 0.00 | 61 | 1013.9 |
| 20260903130024 | 73 | 207 | 1.7 | 10.4 | 0.00 | 0.00 | 0.00 | 61 | 1014.0 |
| 20260903124523 | 74 | 267 | 1.7 | 10.4 | 0.00 | 0.00 | 0.00 | 60 | 1014.2 |
| 20260903123021 | 73 | 316 | 2.6 | 13.9 | 0.00 | 0.00 | 0.00 | 61 | 1014.2 |
| 20260903121528 | 72 | 250 | 0.9 | 7.8 | 0.00 | 0.00 | 0.00 | 62 | 1014.5 |
| 20260903120034 | 71 | 187 | 1.7 | 8.7 | 0.00 | 0.00 | 0.00 | 64 | 1014.7 |
| 20260903114514 | 72 | 280 | 0.9 | 11.3 | 0.00 | 0.00 | 0.00 | 62 | 1014.9 |
| 20260903113018 | 71 | 121 | 2.6 | 10.4 | 0.00 | 0.00 | 0.00 | 64 | 1014.9 |
| 20260903111509 | 70 | 206 | 2.6 | 12.2 | 0.00 | 0.00 | 0.00 | 64 | 1015.1 |
| 20260903110004 | 69 | 198 | 3.5 | 12.2 | 0.00 | 0.00 | 0.00 | 64 | 1015.2 |
| 20260903104503 | 69 | 240 | 3.5 | 10.4 | 0.00 | 0.00 | 0.00 | 63 | 1015.4 |
| 20260903103101 | 68 | 211 | 3.5 | 9.6 | 0.00 | 0.00 | 0.00 | 65 | 1015.8 |
| 20260903101602 | 68 | 176 | 0.0 | 11.3 | 0.00 | 0.00 | 0.00 | 68 | 1015.9 |
| 20260903100055 | 68 | 192 | 0.0 | 6.1 | 0.00 | 0.00 | 0.00 | 68 | 1016.1 |
| 20260903094556 | 68 | 151 | 1.7 | 9.6 | 0.00 | 0.00 | 0.00 | 69 | 1016.3 |
| 20260903093050 | 68 | 318 | 1.7 | 9.6 | 0.00 | 0.00 | 0.00 | 69 | 1016.4 |
| 20260903091550 | 67 | 219 | 0.0 | 11.3 | 0.00 | 0.00 | 0.00 | 72 | 1016.4 |
| 20260903090045 | 66 | 187 | 2.6 | 9.6 | 0.00 | 0.00 | 0.00 | 71 | 1016.8 |
| 20260903084535 | 66 | 157 | 4.3 | 9.6 | 0.00 | 0.00 | 0.00 | 72 | 1016.7 |
| 20260903083033 | 66 | 199 | 3.5 | 9.6 | 0.00 | 0.00 | 0.00 | 73 | 1017.0 |
| 20260903081529 | 65 | 179 | 0.9 | 7.8 | 0.00 | 0.00 | 0.00 | 76 | 1017.0 |
| 20260903080025 | 64 | 211 | 0.9 | 5.2 | 0.00 | 0.00 | 0.00 | 79 | 1017.1 |
| 20260903074523 | 64 | 153 | 0.9 | 4.3 | 0.00 | 0.00 | 0.00 | 78 | 1017.3 |
| 20260903073031 | 63 | 183 | 0.9 | 6.1 | 0.00 | 0.00 | 0.00 | 80 | 1017.4 |
| 20260903071526 | 62 | 165 | 2.6 | 7.0 | 0.00 | 0.00 | 0.00 | 82 | 1017.5 |
| 20260903070014 | 60 | 177 | 0.9 | 3.5 | 0.00 | 0.00 | 0.00 | 90 | 1017.4 |
| 20260903064508 | 57 | 154 | 0.0 | 3.5 | 0.00 | 0.00 | 0.00 | 95 | 1017.5 |
| 20260903063006 | 56 | 180 | 0.9 | 3.5 | 0.00 | 0.00 | 0.00 | 95 | 1017.7 |
| 20260903061501 | 56 | 194 | 0.0 | 2.6 | 0.00 | 0.00 | 0.00 | 95 | 1017.7 |
| 20260903060104 | 55 | 121 | 0.0 | 1.7 | 0.00 | 0.00 | 0.00 | 95 | 1017.6 |
| 20260903054559 | 55 | 196 | 0.0 | 0.0 | 0.00 | 0.00 | 0.00 | 95 | 1017.8 |
| 20260903053054 | 54 | 217 | 0.0 | 0.9 | 0.00 | 0.00 | 0.00 | 95 | 1017.9 |
| 20260903051609 | 54 | 217 | 0.0 | 1.7 | 0.00 | 0.00 | 0.00 | 95 | 1018.0 |
| 20260903050055 | 53 | 320 | 0.0 | 0.0 | 0.00 | 0.00 | 0.00 | 95 | 1017.9 |
| 20260903044553 | 53 | 320 | 0.0 | 0.0 | 0.00 | 0.00 | 0.00 | 95 | 1017.8 |
| 20260903043145 | 53 | 320 | 0.0 | 0.0 | 0.00 | 0.00 | 0.00 | 95 | 1017.8 |